Change the Weather History Date:

Monday, April 14, 2014

  Actual Average Record
Temperature  
Mean Temperature 29 °F 45 °F  
Max Temperature 43 °F 59 °F 84 °F (2003)
Min Temperature 15 °F 31 °F 15 °F (2014)
Degree Days  
Heating Degree Days 36 20  
Month to date heating degree days 366 304  
Since 1 July heating degree days 6781 6542  
Cooling Degree Days 0 0  
Month to date cooling degree days 0 0  
Year to date cooling degree days 0 0  
Moisture  
Dew Point 16 °F    
Average Humidity 57    
Maximum Humidity 84    
Minimum Humidity 29    
Precipitation  
Precipitation 0.00 in 0.07 in 0.26 in (2012)
Month to date precipitation 0.32 0.75  
Year to date precipitation 0.93 2.41  
Sea Level Pressure  
Sea Level Pressure 30.25 in    
Wind  
Wind Speed 8 mph (NNW)    
Max Wind Speed 20 mph    
Max Gust Speed 28 mph    
Visibility 10 miles    
Events      
T = Trace of Precipitation, MM = Missing Value Source: NWS Daily Summary

Daily Weather History Graph

Daily Weather History Graph

Search for Another Location

Airport or City:

Trip Planner

Search our weather history database for the weather conditions in past years. The results will help you decide how hot, cold, wet, or windy it might be!

Date:

Astronomy

Apr. 14, 2014 Rise Set
Actual Time 6:09 AM MDT 7:31 PM MDT
Civil Twilight 5:40 AM MDT 8:01 PM MDT
Nautical Twilight 5:04 AM MDT 8:36 PM MDT
Astronomical Twilight 4:27 AM MDT 9:14 PM MDT
Moon 7:12 PM MDT (4/14) 5:44 AM MDT (4/14)
Length of Visible Light 14h 20m
Length of Day
13h 21m
Full, 100% of the Moon is Illuminated
Apr 14
Full
Apr 15
Full
Apr 22
Last Quarter
Apr 29
New
May 6
First Quarter

Hourly Weather History & Observations

Time (MDT) Temp. Windchill Dew Point Humidity Pressure Visibility Wind Dir Wind Speed Gust Speed Precip Events Conditions
12:52 AM 25.0 °F 20.7 °F 12.9 °F 60% 30.37 in 10.0 mi North 3.5 mph - N/A   Clear
1:52 AM 21.9 °F - 16.0 °F 78% 30.35 in 10.0 mi Calm Calm - N/A   Clear
3:52 AM 17.1 °F 10.0 °F 12.9 °F 84% 30.34 in 10.0 mi SW 4.6 mph - N/A   Clear
4:52 AM 19.0 °F - 12.9 °F 77% 30.32 in 10.0 mi Calm Calm - N/A   Clear
5:52 AM 19.9 °F 13.4 °F 15.1 °F 81% 30.31 in 10.0 mi West 4.6 mph - N/A   Clear
6:52 AM 24.1 °F 13.1 °F 19.0 °F 81% 30.31 in 10.0 mi WSW 11.5 mph - N/A   Scattered Clouds
7:52 AM 25.0 °F 16.3 °F 18.0 °F 75% 30.31 in 10.0 mi WSW 8.1 mph - N/A   Clear
8:52 AM 30.9 °F 21.7 °F 19.0 °F 61% 30.29 in 10.0 mi WNW 11.5 mph 20.7 mph N/A   Partly Cloudy
9:52 AM 35.1 °F 27.4 °F 19.9 °F 54% 30.27 in 10.0 mi WNW 10.4 mph - N/A   Clear
10:52 AM 35.1 °F 26.9 °F 19.9 °F 54% 30.28 in 10.0 mi WNW 11.5 mph 19.6 mph N/A   Overcast
12:52 PM 37.9 °F 28.9 °F 19.0 °F 47% 30.25 in 10.0 mi NNW 16.1 mph 25.3 mph N/A   Scattered Clouds
1:52 PM 42.1 °F 34.2 °F 17.1 °F 37% 30.25 in 10.0 mi North 16.1 mph 27.6 mph N/A   Partly Cloudy
3:52 PM 43.0 °F 36.0 °F 12.9 °F 30% 30.22 in 10.0 mi North 13.8 mph 21.9 mph N/A   Clear
4:52 PM 42.1 °F 34.9 °F 12.0 °F 29% 30.20 in 10.0 mi North 13.8 mph 18.4 mph N/A   Clear
5:52 PM 41.0 °F 36.4 °F 12.9 °F 32% 30.20 in 10.0 mi North 6.9 mph - N/A   Mostly Cloudy
6:52 PM 39.0 °F 35.7 °F 12.0 °F 33% 30.19 in 10.0 mi NE 4.6 mph - N/A   Scattered Clouds
7:52 PM 32.0 °F 26.4 °F 15.1 °F 50% 30.19 in 10.0 mi ESE 5.8 mph - N/A   Clear
8:52 PM 27.0 °F 20.5 °F 17.1 °F 66% 30.19 in 10.0 mi ENE 5.8 mph - N/A   Clear
9:52 PM 26.1 °F 21.9 °F 17.1 °F 69% 30.17 in 10.0 mi ENE 3.5 mph - N/A   Clear
10:52 PM 23.0 °F 17.0 °F 16.0 °F 74% 30.16 in 10.0 mi ENE 4.6 mph - N/A   Clear
11:52 PM 23.0 °F - 16.0 °F 74% 30.14 in 10.0 mi Calm Calm - N/A   Clear